Location: ????????
(55.3155°N, 39.2900°E)
Time: 15:54:21
(UTC+00:00)

ISS - Visible Passes

Search period start: 14 November 2025 00:00
Search period end: 24 November 2025 00:00
Orbit: 415 x 420 km, 51.6° (Epoch: 14 November)

Date Brightness Start Highest point End Pass type
(mag) Time Alt. Az. Time Alt. Az. Time Alt. Az.
15 Nov -1.5 15:42:14 10° SSW 15:43:36 17° S 15:43:36 17° S visible
16 Nov -1.6 14:54:54 10° S 14:56:48 14° SE 14:57:32 14° SE visible
16 Nov -0.9 16:29:50 10° SW 16:30:27 14° SW 16:30:27 14° SW visible
17 Nov -1.2 14:08:20 10° SSE 14:08:56 10° SE 14:09:31 10° SE visible
17 Nov -2.3 15:41:57 10° SW 15:44:18 27° S 15:44:18 27° S visible
18 Nov -2.2 14:54:09 10° SSW 14:56:54 24° SSE 14:58:05 20° SE visible
18 Nov -1.0 16:30:01 10° WSW 16:31:00 17° WSW 16:31:00 17° WSW visible
19 Nov -1.7 14:06:29 10° SSW 14:08:54 19° SSE 14:11:19 10° ESE visible
19 Nov -2.7 15:41:58 10° WSW 15:44:43 38° S 15:44:43 38° S visible
20 Nov -2.7 14:53:56 10° SW 14:57:01 35° SSE 14:58:24 24° ESE visible
20 Nov -1.0 16:30:14 10° WSW 16:31:19 18° WSW 16:31:19 18° WSW visible
21 Nov -2.3 14:05:57 10° SW 14:08:55 29° SSE 14:11:52 10° E visible
21 Nov -2.9 15:42:04 10° WSW 15:44:58 43° SSW 15:44:58 43° SSW visible
22 Nov -3.0 14:53:54 10° WSW 14:57:06 43° S 14:58:36 25° ESE visible
22 Nov -1.0 16:30:25 10° W 16:31:30 18° WSW 16:31:30 18° WSW visible
23 Nov -2.7 14:05:45 10° WSW 14:08:54 39° S 14:12:04 10° E visible
23 Nov -2.7 15:42:10 10° W 15:45:08 40° SSW 15:45:08 40° SSW visible
